FENGYUN 1C DEB, 36262

Orbit data source: Space-Track

FENGYUN 1C DEB, 36262 is space debris in SSO originally from a launch on Mon, 10 May 1999 UTC launched from the Taiyaun Space Center, China (TSC). Fengyun 1C debris stems from the Chinese weather satellite Fengyun-1C, which was intentionally destroyed by a Chinese anti-satellite missile in 2007. This event dramatically increased the amount of space debris, with thousands of trackable fragments posing hazards to satellites and human spaceflight. The Fengyun 1C debris cloud has become a focal point in discussions about space sustainability and the need for international regulations to prevent the creation of new debris.

Loading next visibility...
Identifier
36262, 1999-025DWP
Orbit
SSO
Country
Flag of CNCN / PRC
Related business
Manufacturer
Unknown
Mission
Spacecraft
Bus & Motor
Unknown
Mass
Unknown
Launch date (UTC)
1999-05-10 (27 years ago)
Launch vehicle
Unknown
Launch site
Taiyaun Space Center, China (TSC)
Object type
Payload
Rocket body
Debris
Shape & HBR
Unknown shape, 0.1 m
Radar Cross Section
Small (<0.1 m²)

Expand to show TLE details & history
Last TLE update: 5 days ago

TLE from 5 days ago
0 FENGYUN 1C DEB
1 36262U 99025DWP 25342.41280708  .00001358  00000-0  55783-3 0  9998
2 36262  98.9618 222.8075 0059953 288.1373  71.3285 14.27796215894350
Epoch: 2025-12-08T09:54Z
TLE epoch observation values (Epoch: 2025-12-08T09:54:26.531Z)
Latitude
0.00003°
Longitude
-3.21525°
Altitude
788.478 km
Speed
7.467 km/s
True Right ascension
14h 51m 13s
True Declination
0° 00' 00"
Sunlit
Object was in daylight at epoch
Visualization orbit readout
Latitude
Unknown
Longitude
Unknown
Altitude
Unknown
Speed
Unknown
Apparent Right ascension
Unknown
Apparent Declination
Unknown
Sunlit
N/A
Visualization observer readout
Local Sidereal Time
18:09:58
Azimuth
Unknown
Elevation
Unknown
Doppler factor
Unknown
Orbital elements
Apogee altitude
839.28 km
Perigee altitude
753.254 km
Semi-major axis
7,174.404 km
Eccentricity
0.006
Inclination
98.9618°
RAAN
222.8075°
Arg. of periapsis
288.1373°
True anomaly
71.9809°
Mean anomaly
71.3285°
Eccentric anomaly
71.65455°
Mean motion
3.57161 °/min
Orbital period
100.79 mins
BSTAR
0.00055783
Loading maneuver chart data...
Computing Atmospheric mass density...

Documentation

Showing up to 5 results
|